MST,Max TemperatureF,Mean TemperatureF,Min TemperatureF,Max Dew PointF,MeanDew PointF,Min DewpointF,Max Humidity, Mean Humidity, Min Humidity, Max Sea Level PressureIn, Mean Sea Level PressureIn, Min Sea Level PressureIn, Max VisibilityMiles, Mean VisibilityMiles, Min VisibilityMiles, Max Wind SpeedMPH, Mean Wind SpeedMPH, Max Gust SpeedMPH,PrecipitationIn, CloudCover, Events, WindDirDegrees
2014-1-1,39,30,20,35,25,20,100,99,89,30.52,30.43,30.33,10,7,1,9,6,,0.00,0,,219
2014-1-2,39,30,20,32,26,18,100,92,71,30.45,30.33,30.17,10,10,9,15,9,,0.00,0,,94
2014-1-3,41,31,21,34,31,22,100,97,75,30.17,30.04,29.95,10,10,10,17,10,,0.00,5,,278
2014-1-4,34,25,16,24,19,15,99,77,49,30.46,30.34,30.15,10,10,10,30,15,33,0.00,0,,306
2014-1-5,37,24,10,18,15,9,97,72,38,30.61,30.56,30.48,10,10,10,16,8,,0.00,0,,297
2014-1-6,38,25,11,14,11,5,95,60,33,30.63,30.49,30.27,10,10,10,22,9,,0.00,2,,122
2014-1-7,34,29,24,30,15,10,100,55,40,30.31,30.23,30.09,10,10,5,10,4,,0.02,8,Rain-Snow,94
2014-1-8,34,31,28,34,31,28,100,100,100,30.23,30.12,29.95,10,5,0,18,6,26,0.20,7,Fog-Rain-Snow,124
2014-1-9,39,35,31,37,33,29,100,97,74,30.11,30.03,29.89,10,10,5,22,10,,0.01,6,Rain,331
2014-1-10,44,38,31,38,35,32,100,93,68,30.17,30.09,29.98,10,10,10,17,6,,0.00,7,,322
2014-1-11,56,45,34,46,39,28,100,88,47,30.12,29.86,29.73,10,9,2,34,13,44,0.07,7,Rain,229
2014-1-12,45,39,32,37,30,23,100,78,47,30.35,30.19,29.89,10,10,10,26,13,32,T,7,Rain,320
2014-1-13,49,41,33,39,35,32,100,89,54,30.60,30.44,30.30,10,10,10,18,9,,0.00,5,,312
2014-1-14,47,37,27,36,32,28,100,90,57,30.74,30.67,30.60,10,10,10,14,10,,0.00,0,,281
2014-1-15,47,36,24,35,30,24,100,92,52,30.68,30.60,30.54,10,10,10,13,7,,0.00,1,,291
2014-1-16,41,30,19,39,26,19,100,99,78,30.66,30.55,30.51,10,5,0,9,3,,0.00,1,Fog,69
2014-1-17,41,31,20,34,26,20,100,96,66,30.53,30.44,30.35,10,10,8,10,5,,0.00,0,,81
2014-1-18,41,29,17,32,24,17,100,97,62,30.53,30.40,30.32,10,5,0,13,4,,0.00,0,Fog,11
2014-1-19,31,26,21,30,26,21,100,100,99,30.44,30.32,30.23,10,2,0,12,3,,0.00,7,Fog-Rain,324
2014-1-20,34,28,22,33,26,22,100,100,99,30.63,30.46,30.32,10,3,0,8,4,,0.00,6,Fog,322
2014-1-21,29,26,23,29,26,23,100,100,99,30.62,30.51,30.36,6,2,0,8,3,,0.00,8,Fog,351
2014-1-22,27,26,24,27,25,24,100,100,100,30.46,30.33,30.21,10,2,0,10,3,,T,8,Fog-Snow,268
2014-1-23,30,28,25,30,26,25,100,100,100,30.70,30.51,30.33,10,9,7,10,7,,0.00,7,,95
2014-1-24,27,26,24,27,25,24,100,100,100,30.77,30.68,30.57,10,6,1,8,3,,0.00,8,,56
2014-1-25,25,24,22,25,24,22,100,100,99,30.67,30.54,30.37,10,7,2,6,3,,0.00,8,,259
2014-1-26,24,23,21,24,22,21,100,100,100,30.47,30.32,30.19,10,4,0,6,3,,T,8,Fog,274
2014-1-27,25,24,22,25,23,21,100,100,100,30.44,30.29,30.16,10,5,1,8,3,,T,8,Snow,265
2014-1-28,32,29,25,30,26,23,100,94,69,30.49,30.38,30.28,10,10,7,12,7,,0.00,8,,81
2014-1-29,40,35,30,40,33,30,100,100,100,30.25,29.95,29.75,10,8,2,26,9,34,0.17,8,Rain,103
2014-1-30,43,36,29,40,33,29,100,93,59,29.89,29.86,29.80,10,10,10,18,7,,0.00,4,,306
2014-1-31,40,34,28,33,30,26,100,93,58,30.06,29.98,29.88,10,10,7,23,11,,T,5,Snow,307